COSMOS 1275 DEB, 20505

Orbit data source: Space-Track

COSMOS 1275 DEB, 20505 is space debris in LEO originally from a launch on Thu, 04 Jun 1981 UTC launched from the Plesetsk Missile And Space Complex (PKMTR). Debris objects in space refer to the collection of defunct objects orbiting the Earth. Examples of debris include non-operational satellites, rocket bodies, and fragments generated from explosions, collisions, or faulty payload assembly.

Loading next visibility...
Identifier
20505, 1981-053MM
Orbit
LEO
Country
Flag of CISCIS
Related business
Manufacturer
Unknown
Mission
Spacecraft
Bus & Motor
Unknown
Mass
Unknown
Launch date (UTC)
1981-06-04 (45 years ago)
Launch vehicle
Unknown
Launch site
Plesetsk Missile And Space Complex (PKMTR)
Object type
Payload
Rocket body
Debris
Shape & HBR
Unknown shape, 0.1 m
Radar Cross Section
Small (<0.1 m²)

Expand to show TLE details & history
Last TLE update: 1 day ago

TLE from 1 day ago
0 COSMOS 1275 DEB
1 20505U 81053MM  25352.12849866  .00006539  00000-0  15206-2 0  9999
2 20505  83.1495  40.4609 0016284 215.2779 144.7345 14.54719145649111
Epoch: 2025-12-18T03:05Z
TLE epoch observation values (Epoch: 2025-12-18T03:05:02.284Z)
Latitude
-0.00007°
Longitude
-92.78707°
Altitude
722.726 km
Speed
7.489 km/s
True Right ascension
02h 41m 50s
True Declination
0° 00' 00"
Sunlit
Object was in full shadow at epoch
Visualization orbit readout
Latitude
Unknown
Longitude
Unknown
Altitude
Unknown
Speed
Unknown
Apparent Right ascension
Unknown
Apparent Declination
Unknown
Sunlit
N/A
Visualization observer readout
Local Sidereal Time
10:53:47
Azimuth
Unknown
Elevation
Unknown
Doppler factor
Unknown
Orbital elements
Apogee altitude
718.846 km
Perigee altitude
695.77 km
Semi-major axis
7,085.445 km
Eccentricity
0.00163
Inclination
83.1495°
RAAN
40.4609°
Arg. of periapsis
215.2779°
True anomaly
144.84206°
Mean anomaly
144.7345°
Eccentric anomaly
144.7883°
Mean motion
3.63909 °/min
Orbital period
98.93 mins
BSTAR
0.0015206
Loading maneuver chart data...
Computing Atmospheric mass density...
Loading historical data...
Loading historical data...
Loading historical data...
Loading historical data...
Loading historical data...
Loading historical data...
Loading historical data...

Documentation

Showing up to 5 results
|